DW6169 Weather Reports


Display with metric or nautical units.
time (UTC)temp
F
wind
direction
speed
MPH
gust
MPH
rain 1hr
in
rain 24hr
in
rain mn
in
humidity
%
barometer
mb
20260901225557 85 0 0.0 3.0 0.00 0.41 0.41 76 1015.6
20260901225057 85 0 0.0 4.0 0.00 0.41 0.41 76 1015.4
20260901224606 85 103 0.0 4.0 0.00 0.41 0.41 75 1015.3
20260901224059 85 0 1.0 6.0 0.00 0.41 0.41 75 1015.4
20260901223558 85 23 2.0 6.0 0.00 0.41 0.41 74 1015.5
20260901223105 85 65 0.0 4.0 0.00 0.41 0.41 74 1015.5
20260901222558 85 5 0.0 5.0 0.00 0.41 0.41 74 1015.4
20260901222057 86 0 1.0 8.0 0.00 0.41 0.41 74 1015.4
20260901221619 86 0 1.0 8.0 0.00 0.41 0.41 73 1015.8
20260901221059 86 55 1.0 8.0 0.00 0.41 0.41 73 1015.8
20260901220558 86 86 2.0 7.0 0.00 0.41 0.41 73 1015.6
20260901220109 87 107 1.0 6.0 0.00 0.41 0.41 73 1015.6
20260901215558 87 26 2.0 7.0 0.00 0.41 0.41 73 1015.4
20260901215056 87 58 1.0 7.0 0.00 0.41 0.41 73 1015.3
20260901214603 87 44 2.0 7.0 0.00 0.41 0.41 74 1015.3
20260901214057 86 338 1.0 8.0 0.00 0.41 0.41 74 1015.2
20260901213600 86 74 3.0 8.0 0.00 0.41 0.41 73 1015.0
20260901213109 86 19 3.0 8.0 0.00 0.41 0.41 74 1015.1
20260901212603 86 98 2.0 7.0 0.00 0.41 0.41 75 1015.1
20260901212058 86 49 1.0 4.0 0.00 0.41 0.41 76 1015.1
20260901211603 86 136 0.0 6.0 0.00 0.41 0.41 77 1015.0
20260901211103 85 0 2.0 6.0 0.00 0.41 0.41 77 1015.0
20260901210607 85 27 1.0 7.0 0.00 0.41 0.41 78 1015.0
20260901210131 85 67 2.0 7.0 0.00 0.41 0.41 78 1014.9
20260901205558 85 141 1.0 6.0 0.00 0.41 0.41 80 1014.6
20260901205059 85 38 2.0 5.0 0.00 0.41 0.41 80 1014.3
20260901204605 85 0 1.0 7.0 0.00 0.41 0.41 81 1014.1
20260901204058 84 55 0.0 7.0 0.00 0.41 0.41 82 1014.0
20260901203558 84 44 2.0 7.0 0.00 0.41 0.41 83 1014.0
20260901203104 84 75 2.0 5.0 0.00 0.41 0.41 84 1014.2
20260901202557 83 109 0.0 3.0 0.01 0.41 0.41 85 1014.2
20260901202101 83 108 0.0 4.0 0.05 0.41 0.41 85 1014.3
20260901201606 83 102 2.0 4.0 0.11 0.41 0.41 85 1014.4
20260901201058 83 0 0.0 4.0 0.13 0.41 0.41 86 1014.5
20260901200603 83 0 0.0 4.0 0.17 0.41 0.41 85 1014.6
20260901200107 83 0 1.0 4.0 0.34 0.41 0.41 85 1014.6
20260901195557 83 0 0.0 1.0 0.40 0.41 0.41 85 1014.7
20260901195059 83 0 0.0 1.0 0.40 0.41 0.41 85 1014.9
20260901194607 82 0 0.0 2.0 0.40 0.41 0.41 85 1015.1
20260901194101 82 0 0.0 2.0 0.40 0.41 0.41 84 1015.3
20260901193602 82 0 0.0 3.0 0.40 0.41 0.41 84 1015.4
20260901193109 82 0 0.0 3.0 0.40 0.41 0.41 82 1015.5
20260901192559 82 122 0.0 3.0 0.39 0.40 0.40 81 1015.5
20260901192058 82 0 0.0 3.0 0.35 0.36 0.36 80 1015.7
20260901191614 83 0 0.0 3.0 0.29 0.30 0.30 79 1015.8
20260901191100 83 0 0.0 3.0 0.27 0.28 0.28 78 1015.9
20260901190600 83 0 0.0 5.0 0.23 0.24 0.24 77 1015.9
20260901190135 83 0 0.0 6.0 0.06 0.07 0.07 75 1016.1
20260901185600 84 34 0.0 10.0 0.00 0.01 0.01 73 1016.0
20260901185059 84 315 3.0 11.0 0.00 0.01 0.01 72 1016.2
20260901184605 85 48 4.0 11.0 0.00 0.01 0.01 71 1016.2
20260901184058 87 17 3.0 9.0 0.00 0.01 0.01 73 1016.3
20260901183557 87 38 1.0 7.0 0.00 0.01 0.01 74 1016.0
20260901183108 87 336 2.0 6.0 0.00 0.01 0.01 74 1016.1
20260901182558 87 90 2.0 6.0 0.00 0.01 0.01 74 1016.3
20260901182058 87 82 2.0 6.0 0.00 0.01 0.01 74 1016.3
20260901181603 87 96 1.0 6.0 0.00 0.01 0.01 73 1016.3
20260901181057 88 70 1.0 7.0 0.00 0.01 0.01 74 1016.5
20260901180600 88 99 2.0 7.0 0.00 0.01 0.01 74 1016.5
20260901180105 88 96 1.0 7.0 0.00 0.01 0.01 73 1016.5
20260901175558 88 0 0.0 4.0 0.00 0.01 0.01 73 1016.4
20260901175057 87 25 2.0 7.0 0.00 0.01 0.01 72 1016.3
20260901174607 88 65 1.0 7.0 0.00 0.01 0.01 72 1016.2
20260901174058 88 142 2.0 7.0 0.00 0.01 0.01 71 1016.2
20260901173558 89 83 0.0 2.0 0.00 0.01 0.01 71 1016.3
20260901173106 89 0 0.0 6.0 0.00 0.01 0.01 71 1016.6
20260901172557 89 0 0.0 6.0 0.00 0.01 0.01 71 1016.7
20260901172103 89 91 1.0 5.0 0.00 0.01 0.01 70 1016.8
20260901171637 89 82 0.0 6.0 0.00 0.01 0.01 70 1016.7
20260901171101 89 0 1.0 6.0 0.00 0.01 0.01 69 1016.7
20260901170558 89 92 0.0 3.0 0.00 0.01 0.01 70 1016.8
20260901170112 89 99 0.0 4.0 0.00 0.01 0.01 70 1016.7
20260901165559 89 0 1.0 5.0 0.00 0.01 0.01 70 1016.9
20260901165101 88 126 2.0 5.0 0.00 0.01 0.01 72 1016.8
20260901164625 88 61 1.0 4.0 0.00 0.01 0.01 73 1016.8
20260901164100 87 126 1.0 6.0 0.00 0.01 0.01 74 1016.9
20260901163559 87 51 1.0 8.0 0.00 0.01 0.01 74 1017.0
20260901163118 86 0 2.0 8.0 0.00 0.01 0.01 74 1017.0
20260901162557 86 89 1.0 6.0 0.00 0.01 0.01 74 1017.1
20260901162057 86 88 2.0 6.0 0.00 0.01 0.01 74 1017.2
20260901161625 86 103 2.0 5.0 0.00 0.01 0.01 74 1017.1
20260901161058 86 104 0.0 5.0 0.00 0.01 0.01 73 1017.1
20260901160557 86 0 1.0 6.0 0.00 0.01 0.01 73 1017.1
20260901160105 86 0 1.0 6.0 0.00 0.01 0.01 73 1017.0
20260901155558 86 100 1.0 6.0 0.00 0.01 0.01 72 1017.0
20260901155101 87 135 1.0 4.0 0.00 0.01 0.01 72 1017.1
20260901154601 87 107 1.0 4.0 0.00 0.01 0.01 72 1017.1
20260901154058 87 83 1.0 4.0 0.00 0.01 0.01 71 1017.0
20260901153558 87 0 0.0 2.0 0.00 0.01 0.01 72 1017.1
20260901153106 87 69 0.0 3.0 0.00 0.01 0.01 72 1017.0
20260901152557 87 69 0.0 6.0 0.00 0.01 0.01 72 1017.2
20260901152100 86 86 1.0 6.0 0.00 0.01 0.01 72 1017.3
20260901151606 86 127 1.0 4.0 0.00 0.01 0.01 76 1017.3
20260901151058 85 25 1.0 5.0 0.00 0.01 0.01 77 1017.4
20260901150558 85 352 2.0 5.0 0.00 0.01 0.01 79 1017.3
20260901145558 84 0 0.0 4.0 0.00 0.01 0.01 81 1017.2
20260901145100 83 0 1.0 4.0 0.00 0.01 0.01 82 1017.2
20260901144624 83 360 0.0 3.0 0.00 0.01 0.01 82 1017.1
20260901144101 83 0 0.0 3.0 0.00 0.01 0.01 82 1017.0
20260901143600 83 0 0.0 3.0 0.00 0.01 0.01 83 1017.1
20260901143110 83 5 0.0 3.0 0.00 0.01 0.01 83 1017.1
20260901142556 82 0 1.0 3.0 0.00 0.01 0.01 83 1017.2
20260901142058 82 0 0.0 3.0 0.00 0.01 0.01 83 1017.2
20260901141603 82 0 0.0 3.0 0.00 0.01 0.01 83 1017.1
20260901141058 82 17 0.0 3.0 0.00 0.01 0.01 84 1017.1
20260901140557 82 17 0.0 3.0 0.00 0.01 0.01 84 1017.0
20260901140107 82 0 1.0 3.0 0.00 0.01 0.01 84 1017.0
20260901135600 82 338 0.0 3.0 0.00 0.01 0.01 85 1016.8
20260901135100 81 9 1.0 3.0 0.00 0.01 0.01 85 1016.9
20260901134605 81 0 0.0 3.0 0.00 0.01 0.01 85 1017.0
20260901134103 81 0 0.0 3.0 0.00 0.01 0.01 86 1016.8
20260901133600 81 0 0.0 1.0 0.00 0.01 0.01 86 1016.9
20260901133108 81 0 0.0 1.0 0.00 0.01 0.01 86 1016.8
20260901132559 81 0 0.0 3.0 0.00 0.01 0.01 86 1016.7
20260901132103 81 0 0.0 3.0 0.00 0.01 0.01 86 1016.6
20260901131609 80 0 0.0 4.0 0.00 0.01 0.01 87 1016.7
20260901131101 80 0 1.0 4.0 0.00 0.01 0.01 87 1016.7
20260901130558 80 0 0.0 4.0 0.00 0.01 0.01 87 1016.6
20260901130104 80 18 0.0 3.0 0.00 0.01 0.01 87 1016.7
20260901125558 80 5 0.0 3.0 0.00 0.01 0.01 87 1016.7
20260901125058 79 0 0.0 3.0 0.00 0.01 0.01 87 1016.6
20260901124607 79 0 0.0 3.0 0.00 0.01 0.01 87 1016.5
20260901124057 79 0 0.0 3.0 0.00 0.01 0.01 87 1016.5
20260901123557 79 0 0.0 2.0 0.00 0.01 0.01 87 1016.5
20260901123101 79 0 0.0 0.0 0.00 0.01 0.01 88 1016.5
20260901122600 79 0 0.0 0.0 0.00 0.01 0.01 88 1016.5
20260901122057 79 0 0.0 0.0 0.00 0.01 0.01 88 1016.4
20260901121613 78 0 0.0 0.0 0.00 0.01 0.01 87 1016.4
20260901121100 78 0 0.0 0.0 0.00 0.01 0.01 88 1016.3
20260901120559 78 0 0.0 0.0 0.00 0.01 0.01 87 1016.3
20260901120106 78 0 0.0 0.0 0.00 0.01 0.01 87 1016.2
20260901115557 78 0 0.0 0.0 0.00 0.01 0.01 87 1016.1
20260901115057 78 0 0.0 0.0 0.00 0.01 0.01 87 1016.0
20260901114604 78 0 0.0 0.0 0.00 0.01 0.01 87 1015.9
20260901114101 78 0 0.0 0.0 0.00 0.01 0.01 87 1015.8
20260901113558 78 0 0.0 0.0 0.00 0.01 0.01 87 1015.7
20260901113104 78 0 0.0 0.0 0.00 0.01 0.01 87 1015.7
20260901112556 77 0 0.0 0.0 0.00 0.01 0.01 87 1015.8
20260901112100 77 0 0.0 0.0 0.00 0.01 0.01 87 1015.9
20260901111610 77 0 0.0 0.0 0.00 0.01 0.01 87 1015.8
20260901111058 77 0 0.0 0.0 0.00 0.01 0.01 87 1015.8
20260901110600 77 0 0.0 0.0 0.00 0.01 0.01 87 1015.8
20260901110123 77 0 0.0 0.0 0.00 0.01 0.01 87 1015.7
20260901105557 77 0 0.0 0.0 0.00 0.01 0.01 87 1015.6
20260901105103 77 0 0.0 0.0 0.00 0.01 0.01 87 1015.6
20260901104621 77 0 0.0 0.0 0.00 0.01 0.01 87 1015.5
20260901104057 77 0 0.0 0.0 0.00 0.01 0.01 87 1015.4
20260901103556 77 0 0.0 0.0 0.00 0.01 0.01 87 1015.3
20260901103102 77 0 0.0 0.0 0.00 0.01 0.01 87 1015.3
20260901102557 77 0 0.0 0.0 0.00 0.01 0.01 87 1015.2
20260901102101 77 0 0.0 0.0 0.00 0.01 0.01 87 1015.1
20260901101606 77 0 0.0 0.0 0.00 0.01 0.01 87 1015.0
20260901101100 77 0 0.0 0.0 0.00 0.01 0.01 87 1015.1
20260901100601 77 0 0.0 0.0 0.00 0.01 0.01 87 1015.2
20260901095600 77 0 0.0 0.0 0.00 0.01 0.01 86 1015.3
20260901095100 77 0 0.0 0.0 0.00 0.01 0.01 86 1015.2
20260901094610 77 0 0.0 0.0 0.00 0.01 0.01 86 1015.2
20260901094058 77 0 0.0 0.0 0.00 0.01 0.01 86 1015.2
20260901093557 77 0 0.0 0.0 0.00 0.01 0.01 86 1015.1
20260901093111 77 0 0.0 0.0 0.00 0.01 0.01 86 1015.2
20260901092557 77 0 0.0 0.0 0.00 0.01 0.01 86 1015.2
20260901092100 77 0 0.0 0.0 0.00 0.01 0.01 86 1015.0
20260901091608 77 0 0.0 0.0 0.00 0.01 0.01 86 1015.0
20260901091101 77 0 0.0 1.0 0.00 0.01 0.01 86 1015.0
20260901090605 77 0 0.0 1.0 0.00 0.01 0.01 86 1015.0
20260901090116 77 0 0.0 0.0 0.00 0.01 0.01 86 1015.0
20260901085600 77 0 0.0 0.0 0.00 0.06 0.01 86 1015.1
20260901085103 77 0 0.0 0.0 0.00 0.06 0.01 86 1015.0
20260901084606 77 0 0.0 0.0 0.00 0.06 0.01 86 1014.9
20260901084057 77 0 0.0 0.0 0.00 0.06 0.01 86 1014.9
20260901083600 77 0 0.0 0.0 0.00 0.06 0.01 86 1014.9
20260901083110 77 0 0.0 0.0 0.00 0.06 0.01 86 1015.0
20260901082557 77 0 0.0 0.0 0.00 0.06 0.01 86 1015.1
20260901082059 77 0 0.0 0.0 0.00 0.06 0.01 86 1015.0
20260901081605 77 0 0.0 0.0 0.00 0.06 0.01 85 1015.1
20260901081100 77 0 0.0 0.0 0.00 0.06 0.01 85 1015.1
20260901080603 77 0 0.0 0.0 0.00 0.06 0.01 85 1015.1
20260901080114 77 0 0.0 0.0 0.00 0.06 0.01 85 1015.2
20260901075602 77 0 0.0 0.0 0.00 0.06 0.01 85 1015.2
20260901075059 77 0 0.0 0.0 0.00 0.06 0.01 85 1015.3
20260901074604 77 0 0.0 0.0 0.00 0.06 0.01 85 1015.5
20260901074103 77 0 0.0 0.0 0.00 0.06 0.01 85 1015.6
20260901073557 77 0 0.0 0.0 0.00 0.06 0.01 85 1015.6
20260901073106 77 0 0.0 0.0 0.00 0.06 0.01 85 1015.7
20260901072601 77 0 0.0 0.0 0.00 0.06 0.01 85 1015.6
20260901072058 77 0 0.0 0.0 0.00 0.06 0.01 84 1015.6
20260901071605 78 0 0.0 0.0 0.00 0.06 0.01 84 1015.7
20260901071057 78 0 0.0 0.0 0.00 0.06 0.01 84 1015.6
20260901070600 78 0 0.0 0.0 0.00 0.06 0.01 84 1015.7
20260901070106 78 0 0.0 0.0 0.00 0.06 0.01 84 1015.7
20260901065601 78 0 0.0 0.0 0.00 0.06 0.01 84 1015.7
20260901065100 78 0 0.0 0.0 0.00 0.06 0.01 84 1015.8
20260901064618 78 0 0.0 0.0 0.00 0.06 0.01 84 1015.8
20260901064057 78 0 0.0 0.0 0.00 0.06 0.01 84 1015.8
20260901063559 78 0 0.0 0.0 0.00 0.06 0.01 83 1015.7
20260901063141 78 0 0.0 0.0 0.01 0.06 0.01 83 1015.7
20260901062600 78 0 0.0 0.0 0.01 0.06 0.01 83 1015.8
20260901062100 78 0 0.0 0.0 0.01 0.06 0.01 83 1015.8
20260901061604 78 0 0.0 0.0 0.01 0.06 0.01 83 1015.8
20260901061057 78 0 0.0 0.0 0.01 0.06 0.01 82 1015.8
20260901060602 78 0 0.0 0.0 0.01 0.06 0.01 82 1015.9
20260901060109 78 0 0.0 0.0 0.01 0.06 0.01 82 1015.9
20260901055559 78 0 0.0 0.0 0.01 0.06 0.01 82 1015.9
20260901055101 78 0 0.0 0.0 0.01 0.06 0.01 82 1015.9
20260901054601 78 0 0.0 0.0 0.01 0.06 0.01 82 1016.0
20260901054101 79 0 0.0 0.0 0.01 0.06 0.01 82 1016.0
20260901053558 79 0 0.0 0.0 0.01 0.06 0.01 82 1016.0
20260901053115 79 0 0.0 0.0 0.00 0.05 0.00 81 1016.0
20260901052600 79 0 0.0 0.0 0.00 0.05 0.00 81 1016.1
20260901052101 79 0 0.0 0.0 0.00 0.05 0.00 81 1016.2
20260901051607 79 0 0.0 0.0 0.00 0.05 0.00 80 1016.1
20260901051103 79 0 0.0 0.0 0.00 0.05 0.00 80 1016.1
20260901050558 79 0 0.0 0.0 0.00 0.05 0.00 80 1015.9
20260901050104 79 0 0.0 0.0 0.00 0.05 0.00 80 1016.0
20260901045559 79 0 0.0 0.0 0.00 0.05 0.00 80 1016.1
20260901045101 79 0 0.0 0.0 0.00 0.05 0.00 80 1016.2
20260901044606 79 0 0.0 0.0 0.00 0.05 0.00 80 1016.2
20260901044057 79 0 0.0 0.0 0.00 0.05 0.00 80 1016.3
20260901043557 79 0 0.0 0.0 0.00 0.05 0.00 80 1016.4
20260901043101 79 0 0.0 0.0 0.00 0.05 0.00 80 1016.5
20260901042603 78 0 0.0 0.0 0.00 0.05 0.00 79 1016.6
20260901042101 78 0 0.0 0.0 0.00 0.05 0.00 79 1016.7
20260901041606 78 0 0.0 0.0 0.00 0.05 0.00 79 1016.8
20260901041057 78 0 0.0 0.0 0.00 0.05 0.00 79 1016.7
20260901040557 78 0 0.0 0.0 0.00 0.05 0.00 79 1016.8
20260901040109 78 0 0.0 0.0 0.00 0.05 0.00 79 1017.0
20260901035558 78 0 0.0 0.0 0.00 0.05 0.05 79 1017.1
20260901035058 79 0 0.0 0.0 0.00 0.05 0.05 80 1017.1
20260901034603 79 0 0.0 0.0 0.00 0.05 0.05 80 1017.2
20260901034057 79 0 0.0 1.0 0.00 0.05 0.05 80 1017.3
20260901033557 79 0 0.0 1.0 0.00 0.05 0.05 80 1017.3
20260901033108 79 104 0.0 2.0 0.00 0.05 0.05 80 1017.4
20260901032557 79 0 0.0 3.0 0.00 0.05 0.05 80 1017.5
20260901032057 79 0 0.0 4.0 0.00 0.05 0.05 80 1017.6
20260901031605 80 0 0.0 4.0 0.00 0.05 0.05 80 1017.7
20260901031058 80 0 0.0 7.0 0.00 0.05 0.05 80 1017.7
20260901030559 81 0 0.0 7.0 0.00 0.05 0.05 80 1017.8
20260901030103 81 0 0.0 4.0 0.00 0.05 0.05 80 1018.0
20260901025600 81 173 0.0 4.0 0.00 0.05 0.05 80 1018.1
20260901025104 81 0 1.0 4.0 0.00 0.05 0.05 79 1018.0
20260901024606 81 0 0.0 3.0 0.00 0.05 0.05 79 1018.1
20260901024058 82 0 0.0 3.0 0.00 0.05 0.05 79 1018.0
20260901023601 82 86 0.0 2.0 0.00 0.05 0.05 79 1017.8
20260901023103 82 0 0.0 0.0 0.00 0.05 0.05 78 1017.6
20260901022557 82 0 0.0 0.0 0.00 0.05 0.05 78 1017.3
20260901022058 82 0 0.0 0.0 0.00 0.05 0.05 78 1017.4
20260901021602 82 0 0.0 0.0 0.00 0.05 0.05 77 1017.5
20260901021100 82 0 0.0 0.0 0.00 0.05 0.05 77 1017.4
20260901020603 82 0 0.0 0.0 0.00 0.05 0.05 77 1017.3
20260901015557 83 0 0.0 0.0 0.00 0.05 0.05 76 1017.2
20260901015059 83 0 0.0 0.0 0.00 0.05 0.05 76 1017.2
20260901014601 83 0 0.0 0.0 0.00 0.05 0.05 75 1017.2
20260901014100 83 0 0.0 0.0 0.00 0.05 0.05 75 1017.1
20260901013557 84 0 0.0 0.0 0.00 0.05 0.05 74 1017.0
20260901013109 84 0 0.0 0.0 0.00 0.05 0.05 74 1017.0
20260901012558 84 0 0.0 2.0 0.00 0.05 0.05 74 1016.9
20260901012059 84 0 0.0 2.0 0.00 0.05 0.05 74 1016.8
20260901011603 84 0 0.0 3.0 0.00 0.05 0.05 74 1016.7
20260901011057 84 0 0.0 4.0 0.00 0.05 0.05 74 1016.7
20260901010559 84 0 1.0 8.0 0.00 0.05 0.05 74 1016.6
20260901010108 84 147 0.0 8.0 0.00 0.05 0.05 75 1016.4
20260901005558 85 116 3.0 8.0 0.00 0.05 0.05 75 1016.4
20260901005059 85 108 2.0 7.0 0.00 0.05 0.05 76 1016.4
20260901004607 85 57 3.0 8.0 0.00 0.05 0.05 75 1016.3
20260901004057 85 39 2.0 8.0 0.00 0.05 0.05 75 1016.2
20260901003558 85 66 3.0 8.0 0.00 0.05 0.05 75 1016.2
20260901003108 85 351 1.0 5.0 0.00 0.05 0.05 75 1016.1
20260901002557 85 0 0.0 0.0 0.00 0.05 0.05 76 1016.2
20260901002057 85 0 0.0 6.0 0.00 0.05 0.05 75 1016.2
20260901001603 85 0 2.0 6.0 0.00 0.05 0.05 75 1016.2
20260901001059 85 81 0.0 4.0 0.00 0.05 0.05 75 1016.1
20260901000557 85 0 1.0 9.0 0.00 0.05 0.05 74 1016.1
20260901000106 85 86 1.0 9.0 0.00 0.05 0.05 74 1016.0
20260831235600 85 58 3.0 9.0 0.00 0.05 0.05 75 1016.0
20260831235102 85 323 1.0 6.0 0.00 0.05 0.05 75 1015.9
20260831234603 85 94 0.0 4.0 0.00 0.05 0.05 75 1015.9
20260831234058 85 0 0.0 6.0 0.00 0.05 0.05 75 1015.9
20260831233557 85 26 1.0 6.0 0.00 0.05 0.05 75 1015.9
20260831233101 86 58 0.0 4.0 0.00 0.05 0.05 75 1015.8
20260831232557 85 5 0.0 3.0 0.00 0.05 0.05 75 1016.0
20260831232058 86 0 1.0 6.0 0.00 0.05 0.05 74 1015.9
20260831231613 86 56 0.0 6.0 0.00 0.05 0.05 74 1016.1
20260831231100 86 59 1.0 6.0 0.00 0.05 0.05 74 1015.9
20260831230600 86 106 1.0 6.0 0.00 0.05 0.05 74 1015.9
20260831230106 86 0 2.0 5.0 0.00 0.05 0.05 74 1016.0